380  
ASUS43 KLMK 280610  
RWRKY  
NATIONAL WEATHER SERVICE LOUISVILLE KY  
100 AM EST FRI NOV 28 2014  
 
NOTE "FAIR" INDICATES FEW OR NO CLOUDS BELOW 12,000 FEET  
WITH NO SIGNIFICANT WEATHER AND/OR S TO VISIBILITY
.  
 
KYZ001>023-026-027-061>063-070>075-280700-  
WESTERN AND SOUTH CENTRAL KENTUCKY  
 
CITY SKY/WX TMP DP RH WIND PRES REMARKS
 
PADUCAH FAIR 27 25 92 CALM 30.45S  
HENDERSON CLEAR 21 18 86 CALM 30.45F  
OWENSBORO FLURRIES 23 21 92 MISG 30.46S  
HOPKINSVILLE PTCLDY 28 24 84 SE1 30.45S  
BOWLING GREEN CLEAR 25 17 72 CALM 30.46S  
GLASGOW CLEAR 25 18 76 CALM 30.44S  

 
 
KYZ024-025-028>034-038-045-046-053-280700-  
NORTH CENTRAL KENTUCKY  
 
CITY SKY/WX TMP DP RH WIND PRES REMARKS
 
LOUISVILLE/SDF MOCLDY 28 20 71 W8 30.43S WCI 20  
LOUISVILLE/LOU CLOUDY 29 21 72 W8 30.43S WCI 21  
FORT KNOX CLEAR 23 19 86 W2 30.40F  

 
 
KYZ035>037-039>044-047>052-055>060-089>105-280700-  
NORTHEAST KENTUCKY  
 
CITY SKY/WX TMP DP RH WIND PRES REMARKS
 
LEXINGTON CLOUDY 27 16 63 W8 30.40S WCI 19  
COVINGTON FLURRIES 27 14 58 W7 30.38F WCI 19  
FRANKFORT CLOUDY 28 19 69 W3 30.40S  

 
 
KYZ054-064>069-076>088-106>120-280700-  
SOUTHEAST KENTUCKY  
 
CITY SKY/WX TMP DP RH WIND PRES REMARKS
 
JACKSON CLOUDY 28 20 71 W7 30.35S WCI 21  
LONDON CLOUDY 28 19 69 W10 30.39S WCI 19  
SOMERSET CLOUDY 28 19 69 CALM 30.43S  
MIDDLESBORO NOT AVBL  
MONTICELLO CLOUDY 29 22 75 NW3 30.44F  

 
 
CLICK HERE TO GO TO PREVIOUS BULLETINS.

The Nexlab KY Page Main Text Page